Weather History for Gustavus, AK

Change the Weather History Date:

Monday, May 13, 2013

  Actual Average Record
Temperature  
Mean Temperature 48 °F -  
Max Temperature 50 °F 56 °F 68 °F (2004)
Min Temperature 46 °F 39 °F 28 °F (1986)
Degree Days  
Heating Degree Days 17    
Moisture  
Dew Point 45 °F    
Average Humidity 93    
Maximum Humidity 100    
Minimum Humidity 82    
Precipitation  
Precipitation 0.00 in - - ()
Sea Level Pressure  
Sea Level Pressure 29.60 in    
Wind  
Wind Speed 3 mph (ESE)    
Max Wind Speed 15 mph    
Max Gust Speed 20 mph    
Visibility 10 miles    
Events      
Averages and records for this station are not official NWS values.
T = Trace of Precipitation, MM = Missing Value Source: NWS Daily Summary

Daily Weather History Graph

Daily Weather History Graph

Search for Another Location

Airport:

Trip Planner

Search our weather history database for the weather conditions in past years. The results will help you decide how hot, cold, wet, or windy it might be!

Date:

Astronomy

May. 13, 2013 Rise Set
Actual Time 4:39 AM AKDT 9:20 PM AKDT
Civil Twilight 3:43 AM AKDT 10:17 PM AKDT
Nautical Twilight 2:02 AM AKDT 12:02 AM AKDT
Astronomical Twilight Sun does not rise Sun does not rise
Moon 7:27 AM AKDT (5/13) No Moon Set
Length of Visible Light 18h 34m
Length of Day
16h 41m
Waxing Crescent, 13% of the Moon is Illuminated
May 13
Waxing Crescent
May 17
First Quarter
May 24
Full
May 31
Last Quarter
Jun 8
New

Hourly Weather History & Observations

Time (AKDT) Temp. Windchill Dew Point Humidity Pressure Visibility Wind Dir Wind Speed Gust Speed Precip Events Conditions
12:16 AM 48.2 °F - 46.4 °F 93% 29.58 in 10.0 mi Calm Calm - N/A   Overcast
12:36 AM 48.2 °F - 46.4 °F 93% 29.58 in 10.0 mi Calm Calm - N/A   Overcast
12:56 AM 48.2 °F - 46.4 °F 93% 29.58 in 10.0 mi Calm Calm - N/A   Overcast
1:16 AM 48.2 °F - 46.4 °F 93% 29.58 in 10.0 mi Calm Calm - N/A   Overcast
1:36 AM 46.4 °F - 46.4 °F 100% 29.58 in 7.0 mi Calm Calm - N/A   Overcast
1:56 AM 46.4 °F - 46.4 °F 100% 29.58 in 4.0 mi Calm Calm - N/A   Overcast
2:16 AM 46.4 °F 45.2 °F 46.4 °F 100% 29.57 in 5.0 mi NNW 3.5 mph - N/A   Overcast
2:36 AM 46.4 °F - 46.4 °F 100% 29.57 in 10.0 mi Calm Calm - N/A   Overcast
2:56 AM 46.4 °F 45.2 °F 46.4 °F 100% 29.57 in 10.0 mi NNW 3.5 mph - N/A   Overcast
3:16 AM 46.4 °F - 44.6 °F 93% 29.56 in 10.0 mi Calm Calm - N/A   Overcast
3:36 AM 46.4 °F - 44.6 °F 93% 29.56 in 10.0 mi Calm Calm - N/A   Overcast
3:56 AM 46.4 °F - 44.6 °F 93% 29.56 in 10.0 mi Calm Calm - N/A   Overcast
4:16 AM 46.4 °F 44.3 °F 46.4 °F 100% 29.56 in 10.0 mi North 4.6 mph - N/A   Overcast
4:36 AM 46.4 °F - 46.4 °F 100% 29.55 in 10.0 mi Calm Calm - N/A   Overcast
4:56 AM 46.4 °F 45.2 °F 44.6 °F 93% 29.55 in 10.0 mi North 3.5 mph - N/A   Overcast
5:16 AM 46.4 °F - 44.6 °F 93% 29.55 in 10.0 mi Calm Calm - N/A   Overcast
5:36 AM 46.4 °F - 44.6 °F 93% 29.55 in 10.0 mi Calm Calm - N/A   Overcast
5:56 AM 46.4 °F - 44.6 °F 93% 29.55 in 10.0 mi Calm Calm - N/A   Overcast
6:16 AM 46.4 °F - 44.6 °F 93% 29.55 in 10.0 mi Calm Calm - N/A   Overcast
6:36 AM 46.4 °F 45.2 °F 44.6 °F 93% 29.55 in 10.0 mi NNE 3.5 mph - N/A   Overcast
6:56 AM 46.4 °F 45.2 °F 46.4 °F 100% 29.55 in 10.0 mi ESE 3.5 mph - N/A   Overcast
7:16 AM 46.4 °F 45.2 °F 46.4 °F 100% 29.55 in 10.0 mi ESE 3.5 mph - N/A   Overcast
7:36 AM 46.4 °F 42.9 °F 46.4 °F 100% 29.55 in 10.0 mi ESE 6.9 mph - N/A   Overcast
7:56 AM 48.2 °F - 46.4 °F 93% 29.56 in 8.0 mi Calm Calm - N/A   Overcast
8:16 AM 48.2 °F - 46.4 °F 93% 29.56 in 10.0 mi Calm Calm - N/A   Overcast
8:36 AM 46.4 °F - 46.4 °F 100% 29.57 in 10.0 mi Calm Calm - N/A   Overcast
8:56 AM 48.2 °F - 46.4 °F 93% 29.57 in 10.0 mi SE 8.1 mph - N/A   Overcast
9:16 AM 48.2 °F - 46.4 °F 93% 29.57 in 10.0 mi SE 6.9 mph - N/A   Overcast
9:36 AM 48.2 °F - 46.4 °F 93% 29.58 in 10.0 mi SE 10.4 mph - N/A   Overcast
9:56 AM 50.0 °F - 46.4 °F 87% 29.58 in 10.0 mi SE 15.0 mph 19.6 mph N/A   Overcast
10:16 AM 48.2 °F - 46.4 °F 93% 29.60 in 10.0 mi SE 12.7 mph - N/A   Overcast
10:36 AM 48.2 °F - 46.4 °F 93% 29.61 in 10.0 mi SE 12.7 mph - N/A   Overcast
10:56 AM 46.4 °F 43.5 °F 44.6 °F 93% 29.63 in 10.0 mi SW 5.8 mph - N/A   Overcast
11:16 AM 46.4 °F - 44.6 °F 93% 29.64 in 10.0 mi Calm Calm - N/A   Overcast
11:36 AM 46.4 °F - 44.6 °F 93% 29.64 in 10.0 mi Calm Calm - N/A   Overcast
12:36 PM 48.2 °F - 44.6 °F 87% 29.66 in 10.0 mi Calm Calm - N/A   Overcast
12:56 PM 48.2 °F - 44.6 °F 87% 29.66 in 10.0 mi Calm Calm - N/A   Overcast
1:16 PM 48.2 °F - 46.4 °F 93% 29.67 in 10.0 mi Calm Calm - N/A   Mostly Cloudy
1:36 PM 48.2 °F - 44.6 °F 87% 29.67 in 10.0 mi Calm Calm - N/A   Overcast
1:56 PM 48.2 °F - 44.6 °F 87% 29.66 in 10.0 mi East 9.2 mph - N/A   Overcast
2:16 PM 48.2 °F - 44.6 °F 87% 29.66 in 10.0 mi ESE 11.5 mph - N/A   Overcast
2:36 PM 48.2 °F - 44.6 °F 87% 29.66 in 10.0 mi ESE 9.2 mph - N/A   Overcast
2:56 PM 48.2 °F - 44.6 °F 87% 29.66 in 10.0 mi ESE 9.2 mph - N/A   Overcast
3:36 PM 48.2 °F - 44.6 °F 87% 29.65 in 10.0 mi ESE 8.1 mph - N/A   Overcast
4:16 PM 48.2 °F - 44.6 °F 87% 29.64 in 10.0 mi ESE 6.9 mph - N/A   Overcast
4:36 PM 48.2 °F - 44.6 °F 87% 29.64 in 10.0 mi ESE 4.6 mph - N/A   Overcast
4:56 PM 48.2 °F - 44.6 °F 87% 29.64 in 10.0 mi ESE 4.6 mph - N/A   Overcast
5:16 PM 48.2 °F - 42.8 °F 82% 29.64 in 10.0 mi Calm Calm - N/A   Overcast
5:36 PM 48.2 °F - 42.8 °F 82% 29.63 in 10.0 mi Calm Calm - N/A   Overcast
5:56 PM 48.2 °F - 44.6 °F 87% 29.63 in 10.0 mi East 3.5 mph - N/A   Overcast
6:16 PM 48.2 °F - 44.6 °F 87% 29.63 in 10.0 mi ESE 4.6 mph - N/A   Overcast
6:36 PM 46.4 °F 45.2 °F 44.6 °F 93% 29.63 in 10.0 mi SE 3.5 mph - N/A   Overcast
6:56 PM 46.4 °F 45.2 °F 44.6 °F 93% 29.62 in 10.0 mi East 3.5 mph - N/A   Overcast
7:16 PM 46.4 °F 44.3 °F 44.6 °F 93% 29.62 in 10.0 mi East 4.6 mph - N/A   Overcast
7:36 PM 46.4 °F 44.3 °F 44.6 °F 93% 29.62 in 10.0 mi ESE 4.6 mph - N/A   Overcast
7:56 PM 46.4 °F 45.2 °F 44.6 °F 93% 29.61 in 10.0 mi ESE 3.5 mph - N/A   Overcast
8:16 PM 46.4 °F 44.3 °F 44.6 °F 93% 29.61 in 10.0 mi ESE 4.6 mph - N/A   Overcast
8:36 PM 46.4 °F 43.5 °F 44.6 °F 93% 29.62 in 10.0 mi East 5.8 mph - N/A   Overcast
8:56 PM 46.4 °F 42.9 °F 44.6 °F 93% 29.62 in 10.0 mi East 6.9 mph - N/A   Mostly Cloudy
9:16 PM 46.4 °F 42.9 °F 44.6 °F 93% 29.63 in 10.0 mi East 6.9 mph - N/A   Overcast
9:36 PM 46.4 °F 43.5 °F 44.6 °F 93% 29.63 in 10.0 mi ESE 5.8 mph - N/A   Overcast
9:56 PM 46.4 °F 43.5 °F 44.6 °F 93% 29.63 in 10.0 mi ESE 5.8 mph - N/A   Overcast
10:16 PM 46.4 °F 44.3 °F 44.6 °F 93% 29.63 in 10.0 mi SE 4.6 mph - N/A   Overcast
10:36 PM 46.4 °F 43.5 °F 44.6 °F 93% 29.63 in 10.0 mi East 5.8 mph - N/A   Overcast
10:56 PM 46.4 °F 42.4 °F 44.6 °F 93% 29.64 in 10.0 mi ESE 8.1 mph - N/A   Overcast
11:16 PM 46.4 °F 41.9 °F 44.6 °F 93% 29.64 in 10.0 mi ESE 9.2 mph - N/A   Overcast
11:36 PM 46.4 °F 42.9 °F 44.6 °F 93% 29.64 in 10.0 mi ESE 6.9 mph - N/A   Overcast
11:56 PM 46.4 °F 43.5 °F 44.6 °F 93% 29.65 in 10.0 mi West 5.8 mph - N/A   Overcast